C/2015 V3 ( PanSTARRS )

Japanese version
Home page
Updated on December 31, 2016

---------------------------------------------------------------------

* Profile

Discovery Date November 2, 2015
Magnitude 21.8 mag
Discoverer Pan-STARRS 1 telescope (Haleakala)

* Pictures

* Orbital Elements

Epoch 2015 Dec. 4.0 TT = JDT 2457360.5
T 2015 Nov. 24.87996 TT                                 MPCW
q   4.2356350            (2000.0)            P               Q
z  +0.0012270      Peri.    0.82341     +0.99902373     -0.01704356
 +/-0.0000055      Node     2.34090     +0.03263279     -0.33715776
e   0.9948031      Incl.   86.23079     +0.02977743     +0.94129388
From 78 observations 2015 Nov. 2-2016 Oct. 29, mean residual 0".5.

* Magnitudes Graph

        m1 = -15.5 + 5 log d + 50 log r

---------------------------------------------------------------------

The orbital elements are published on M.P.E.C. 2016-V116.
The magnitudes graphs are made with Comet for Windows.

---------------------------------------------------------------------

Copyright(C) Seiichi Yoshida (comet@aerith.net). All rights reserved.